Terminal Aerodrome Forecast
Issued by NWS Denver/Boulder, CO

Home | Current Version | Previous Version | Text Only | Print | Product List | Glossary On
Versions: 1 2 3 4 5 6 7 8 9 10 11 12 13 14 15 16 17 18 19 20 21 22 23 24 25 26 27 28 29 30 31 32 33 34 35 36 37 38 39 40 41 42 43 44 45 46 47 48 49 50
000
FTUS45 KBOU 210443 AAB
TAFDEN
TAF AMD
KDEN 210443Z 2105/2206 21009KT P6SM SCT080 BKN150
     FM212000 26012G22KT P6SM SCT100 BKN150
     FM220200 22008KT P6SM BKN100 BKN150=

USA.gov is the U.S. government's official web portal to all federal, state and local government web resources and services.